Tracking 31027 objects as of 19-Jul-2025
HD Live streaming from Space Station
objects crossing your sky now

ATLAS F R/B

Track ATLAS F R/B now!
10-day predictions


NORAD ID: 11142
Int'l Code: 1978-112B
Perigee: 1,043.3 km
Apogee: 13,845.9 km
Inclination: 64.3 °
Period: 269.3 minutes
Semi major axis: 13815 km
RCS: 1.5941 m2 (large)
Launch date: December 11, 1978
Source: United States (US)
Launch site: AIR FORCE WESTERN TEST RANGE (AFWTR)

Note: This is a ROCKET BODY
Your satellite tracking list
IRIDIUM 134
Track 1 satellite(s)




NASA's NSSDC Master Catalog

Two Line Element Set (TLE):
1 11142U 78112B   25199.76042712  .00000063  00000-0  20235-2 0  9996
2 11142  64.2764 296.6616 4633397 259.3485 312.8962  5.34625063897848
Source of the keplerian elements: AFSPC